[[{"header":{"parameterUnit":"m.s-1","parameterCategory":1,"la1":30.2992,"la2":30.254,"lo1":-89.0895,"lo2":-89.0443,"dy":0.0025,"dx":0.0025,"nx":19,"ny":19,"refTime":"2026-05-04T03:00:00:Z","depth":0,"parameterNumber":2,"parameterNumberName":"U-component_of_WINDS"},"data":[0,0,0,1.863,1.8632,1.8741,1.8742,1.8884,1.8885,0,0,0,0,0,0,0,0,0,0,0,1.86,1.8601,1.863,1.8633,1.8741,1.8742,1.8883,1.8885,0,0,0,0,0,0,0,0,0,0,0,1.8599,1.8601,1.8602,1.8633,1.8741,1.8742,1.8883,1.88,0,0,0,0,0,0,0,0,0,0,1.8694,1.8668,1.86,1.8602,1.8634,1.8741,1.8742,1.8796,1.8805,1.8836,0,1.8863,0,1.8876,1.8895,1.8895,0,0,0,1.8631,1.866,1.8688,1.8602,1.8635,1.8741,1.8692,1.8801,1.8812,1.8848,1.8865,1.887,1.8879,1.8896,1.8896,1.9076,1.9077,0,0,1.8625,1.862,1.8681,1.8695,1.8678,1.8688,1.8695,1.8807,1.8826,1.8866,1.8874,1.8881,1.8896,1.8898,1.9075,1.9076,0,0,0,1.8609,1.8616,1.8641,1.8689,1.8708,1.8692,1.8699,1.8821,1.8829,1.8875,1.8883,1.8897,1.8899,1.9074,1.9075,1.9114,0,0,0,1.8605,1.8607,1.8638,1.8636,1.8706,1.8766,1.8711,1.8822,1.8834,1.8882,1.8897,1.89,1.9073,1.9075,1.911,1.9132,0,0,0,1.8592,1.8605,1.8621,1.8636,1.8682,1.8764,1.8779,1.8825,1.8839,1.8895,1.8901,1.9072,1.9074,1.9108,1.9127,1.9176,0,0,0,1.8576,1.8655,1.8622,1.8713,1.8682,1.8788,1.8778,1.8858,1.8911,1.8898,1.9073,1.9075,1.9107,1.9125,1.9173,1.9215,1.9232,0,0,1.8672,1.8666,1.872,1.8694,1.8804,1.8771,1.8888,1.8941,1.8952,1.9034,1.9038,1.9112,1.9127,1.9176,1.9336,1.935,0,0,0,1.8748,1.8787,1.8817,1.8867,1.891,1.8948,1.8984,1.9004,1.9074,1.8993,1.9144,1.9153,1.9182,1.9202,1.9214,1.9238,1.9085,1.9085,1.9085,1.8876,1.8885,1.8973,1.8995,1.9044,1.9081,1.912,1.9153,1.9149,1.9184,1.9208,1.9304,1.9327,1.9336,1.9361,1.9233,1.9233,1.9233,1.9233,1.9015,1.907,1.9062,1.9145,1.9154,1.9224,1.9263,1.9257,1.9323,1.9287,1.9313,1.9271,1.9351,1.9373,1.9236,1.9235,1.9235,1.9235,1.9235,1.9097,1.9125,1.9148,1.9221,1.9276,1.9296,1.936,1.9366,1.9373,1.9399,1.9423,1.9422,1.9421,1.941,1.9411,1.9411,1.9411,1.9411,1.9412,1.9172,1.9197,1.925,1.9302,1.9335,1.9378,1.9417,1.9449,1.9486,1.9485,1.9486,1.9476,1.9358,1.9327,1.9417,1.9416,1.9415,1.9415,1.9414,1.9306,1.9277,1.9358,1.9391,1.9452,1.9506,1.9514,1.9579,1.9607,1.9638,1.9624,1.9536,1.953,1.9521,1.9495,1.9623,1.9623,1.9623,1.9623,1.9373,1.9371,1.9456,1.9507,1.9559,1.9575,1.9665,1.9696,1.9723,1.9741,1.9724,1.9691,1.9681,1.9681,1.9668,1.9643,1.9806,1.9807,1.9807,1.9455,1.9459,1.9534,1.9561,1.961,1.9651,1.9736,1.9795,1.982,1.9814,1.9754,1.9746,1.9693,1.9676,1.9666,1.9646,1.9602,0,0]},{"header":{"parameterUnit":"m.s-1","parameterCategory":1,"la1":30.2992,"la2":30.254,"lo1":-89.0895,"lo2":-89.0443,"dy":0.0025,"dx":0.0025,"nx":19,"ny":19,"refTime":"2026-05-04T03:00:00:Z","depth":0,"parameterNumber":3,"parameterNumberName":"V-component_of_WINDS"},"data":[0,0,0,3.0425,3.0429,3.0605,3.0605,3.0829,3.0831,0,0,0,0,0,0,0,0,0,0,0,3.0376,3.0377,3.0425,3.043,3.0605,3.0605,3.0829,3.0831,0,0,0,0,0,0,0,0,0,0,0,3.0375,3.0377,3.0379,3.043,3.0604,3.0605,3.0828,3.0695,0,0,0,0,0,0,0,0,0,0,3.0525,3.0482,3.0376,3.0379,3.0431,3.0604,3.0605,3.0689,3.0704,3.075,0,3.0793,0,3.0816,3.0846,3.0847,0,0,0,3.0428,3.047,3.0515,3.0379,3.0433,3.0604,3.0525,3.0697,3.0714,3.0769,3.0797,3.0805,3.0819,3.0847,3.0849,3.1122,3.1123,0,0,3.0418,3.0408,3.0504,3.0526,3.0501,3.0519,3.0531,3.0707,3.0736,3.0797,3.081,3.0823,3.0849,3.0851,3.1121,3.1122,0,0,0,3.0391,3.0402,3.0442,3.0517,3.0548,3.0525,3.0537,3.0728,3.0742,3.0813,3.0826,3.085,3.0853,3.1119,3.1121,3.1178,0,0,0,3.0385,3.0386,3.0438,3.0434,3.0545,3.0641,3.0554,3.073,3.075,3.0825,3.085,3.0855,3.1118,3.112,3.1174,3.1207,0,0,0,3.0363,3.0383,3.041,3.0433,3.0508,3.0639,3.0663,3.0735,3.0759,3.0847,3.0856,3.1117,3.112,3.1169,3.12,3.1274,0,0,0,3.0337,3.046,3.041,3.0552,3.0507,3.0673,3.0662,3.0786,3.0869,3.0851,3.1118,3.1121,3.1168,3.1196,3.1269,3.1334,3.1361,0,0,3.0486,3.0478,3.0561,3.0522,3.0694,3.0647,3.0827,3.0912,3.0929,3.1056,3.1063,3.1175,3.12,3.1273,3.1513,3.1534,0,0,0,3.0605,3.0665,3.0713,3.0791,3.0858,3.0917,3.0976,3.1006,3.1114,3.0993,3.1223,3.1238,3.1281,3.1312,3.133,3.1366,3.1135,3.1135,3.1135,3.0804,3.0818,3.0956,3.099,3.1065,3.1121,3.1183,3.1233,3.1227,3.128,3.1318,3.1462,3.1498,3.1512,3.155,3.1354,3.1354,3.1354,3.1355,3.1023,3.1109,3.1094,3.1223,3.1235,3.1342,3.1399,3.139,3.149,3.1436,3.1475,3.1414,3.1534,3.1568,3.1359,3.1358,3.1358,3.1357,3.1357,3.1154,3.1198,3.1232,3.1342,3.1425,3.1454,3.1549,3.1558,3.1566,3.1604,3.1643,3.1642,3.164,3.1622,3.1623,3.1623,3.1623,3.1624,3.1624,3.1277,3.1313,3.1394,3.1472,3.152,3.1584,3.1638,3.1685,3.1739,3.1737,3.1738,3.1723,3.1544,3.1498,3.1632,3.1631,3.163,3.1629,3.1628,3.1494,3.1445,3.1569,3.1617,3.1706,3.1785,3.1793,3.1887,3.1927,3.1972,3.1948,3.1815,3.1807,3.1793,3.1754,3.1947,3.1947,3.1947,3.1947,3.1604,3.1599,3.1725,3.1801,3.1876,3.1894,3.2029,3.2069,3.2103,3.2128,3.21,3.2051,3.2036,3.2036,3.2017,3.1981,3.2227,3.2227,3.2228,3.1736,3.1739,3.1855,3.1888,3.1956,3.2014,3.214,3.2224,3.2252,3.2239,3.2146,3.2134,3.2054,3.2027,3.2014,3.1983,3.1918,0,0]}]]